Weather History for Rifle, CO

Change the Weather History Date:

Saturday, August 3, 2013

  Actual Average Record
Temperature  
Mean Temperature 75 °F 73 °F  
Max Temperature 89 °F 90 °F 98 °F (1934)
Min Temperature 61 °F 55 °F 40 °F (1975)
Degree Days  
Heating Degree Days 0 0  
Month to date heating degree days 0 0  
Since 1 June heating degree days 13 60  
Since 1 July heating degree days 0 1  
Cooling Degree Days 10 8  
Month to date cooling degree days 17 24  
Year to date cooling degree days 514 367  
Since 1 June cooling degree days 507 360  
Growing Degree Days 25 (Base 50)    
Moisture  
Dew Point 49 °F    
Average Humidity 41    
Maximum Humidity 60    
Minimum Humidity 22    
Precipitation  
Precipitation 0.02 in 0.05 in 0.45 in (1920)
Month to date precipitation 0.04 0.14  
Year to date precipitation 4.80 7.71  
Sea Level Pressure  
Sea Level Pressure 29.99 in    
Wind  
Wind Speed 7 mph (SE)    
Max Wind Speed 25 mph    
Max Gust Speed 30 mph    
Visibility 10 miles    
Events Rain , Thunderstorm    
T = Trace of Precipitation, MM = Missing Value Source: NWS Daily Summary

Daily Weather History Graph

Daily Weather History Graph

Search for Another Location

Airport:

Trip Planner

Search our weather history database for the weather conditions in past years. The results will help you decide how hot, cold, wet, or windy it might be!

Date:

Astronomy

Aug. 03, 2013 Rise Set
Actual Time 6:12 AM MDT 8:20 PM MDT
Civil Twilight 5:42 AM MDT 8:50 PM MDT
Nautical Twilight 5:06 AM MDT 9:27 PM MDT
Astronomical Twilight 4:26 AM MDT 10:06 PM MDT
Moon 3:24 AM MDT (8/3) 6:05 PM MDT (8/3)
Length of Visible Light 15h 08m
Length of Day
14h 08m
Waning Crescent, 9% of the Moon is Illuminated
Aug 3
Waning Crescent
Aug 6
New
Aug 14
First Quarter
Aug 20
Full
Aug 28
Last Quarter

Hourly Weather History & Observations

Time (MDT) Temp. Heat Index Dew Point Humidity Pressure Visibility Wind Dir Wind Speed Gust Speed Precip Events Conditions
12:53 AM 66.9 °F - 48.9 °F 52% 29.93 in 10.0 mi SSE 5.8 mph - N/A   Clear
1:53 AM 64.9 °F - 48.9 °F 56% 29.92 in 10.0 mi East 3.5 mph - N/A   Clear
2:53 AM 64.0 °F - 48.9 °F 58% 29.93 in 10.0 mi ESE 4.6 mph - N/A   Clear
3:53 AM 66.9 °F - 48.0 °F 51% 29.94 in 10.0 mi Calm Calm - N/A   Partly Cloudy
4:53 AM 64.0 °F - 48.9 °F 58% 29.96 in 10.0 mi SSE 4.6 mph - N/A   Clear
5:53 AM 62.1 °F - 48.9 °F 62% 30.01 in 10.0 mi East 5.8 mph - N/A   Mostly Cloudy
6:53 AM 61.0 °F - 54.0 °F 78% 29.99 in 6.0 mi SE 20.7 mph - 0.02 in Rain Light Rain
7:53 AM 63.0 °F - 52.0 °F 67% 30.03 in 10.0 mi Calm Calm - 0.00 in   Scattered Clouds
8:53 AM 69.1 °F - 53.1 °F 57% 30.03 in 10.0 mi ESE 4.6 mph - N/A   Clear
9:53 AM 73.0 °F - 50.0 °F 44% 30.03 in 10.0 mi ENE 5.8 mph - N/A   Clear
10:53 AM 77.0 °F - 46.0 °F 33% 30.01 in 10.0 mi Calm Calm - N/A   Clear
11:53 AM 82.0 °F - 48.9 °F 31% 29.99 in 10.0 mi WNW 6.9 mph - N/A   Clear
12:53 PM 82.9 °F - 50.0 °F 32% 29.96 in 10.0 mi West 12.7 mph - N/A   Clear
1:53 PM 84.9 °F - 50.0 °F 30% 29.96 in 10.0 mi South 6.9 mph - N/A   Clear
2:39 PM 82.4 °F 81.4 °F 53.6 °F 37% 30.17 in 10.0 mi SSW 5.8 mph - 0.00 in Thunderstorm Partly Cloudy
2:53 PM 84.0 °F - 52.0 °F 33% 29.94 in 10.0 mi SSW 8.1 mph - 0.00 in   Clear
3:53 PM 87.1 °F - 45.0 °F 23% 29.90 in 10.0 mi SSW 4.6 mph - N/A   Clear
4:53 PM 87.1 °F - 46.9 °F 25% 29.91 in 10.0 mi West 10.4 mph - N/A   Clear
5:53 PM 89.1 °F - 46.0 °F 22% 29.90 in 10.0 mi SE 8.1 mph - N/A   Clear
6:18 PM 87.8 °F - 48.2 °F 25% 30.12 in 10.0 mi Variable 3.5 mph 21.9 mph N/A Thunderstorm Partly Cloudy
6:33 PM 87.8 °F - 46.4 °F 24% 30.12 in 10.0 mi NW 6.9 mph - N/A   Clear
6:53 PM 88.0 °F - 46.0 °F 23% 29.89 in 10.0 mi West 11.5 mph - N/A   Clear
7:53 PM 84.0 °F - 48.0 °F 28% 29.91 in 10.0 mi South 13.8 mph 21.9 mph N/A   Mostly Cloudy
8:44 PM 75.2 °F - 48.2 °F 38% 30.16 in 10.0 mi East 18.4 mph 29.9 mph N/A   Mostly Cloudy
8:53 PM 73.9 °F - 48.9 °F 41% 29.96 in 10.0 mi East 17.3 mph 24.2 mph N/A   Scattered Clouds
9:53 PM 72.0 °F - 48.9 °F 44% 29.99 in 10.0 mi East 10.4 mph - N/A   Clear
10:53 PM 70.0 °F - 50.0 °F 49% 29.99 in 10.0 mi East 9.2 mph - N/A   Clear
11:53 PM 69.1 °F - 50.0 °F 51% 29.99 in 10.0 mi East 9.2 mph - N/A   Clear